[[{"header":{"parameterUnit":"m.s-1","parameterCategory":1,"la1":30.2991,"la2":30.254,"lo1":-89.0895,"lo2":-89.0444,"dy":0.0017,"dx":0.0017,"nx":28,"ny":28,"refTime":"2023-10-24T09:00:00:Z","depth":0,"parameterNumber":2,"parameterNumberName":"U-component_of_WINDS"},"data":[0,0,0,0,0,0,0,0,0,0,0,0,0,0,0,0,0,0,0,0,0,0,0,0,0,0,0,0,0,0,0,0,0,0,0,0,0,0,0,0,0,0,0,0,0,0,0,0,0,0,0,0,0,0,0,0,0,0,-5.6752,-5.6753,0,-5.6869,-5.6871,-5.6872,-5.6773,-5.6769,-5.6764,-5.6761,-5.6889,-5.6896,-5.6903,0,0,0,0,0,0,0,0,0,0,0,0,0,-5.6451,-5.6457,-5.6752,-5.6754,-5.6755,-5.6869,-5.6871,-5.6872,-5.6773,-5.6768,-5.6763,-5.6759,-5.6887,-5.6895,-5.6904,0,0,0,0,0,0,0,0,0,0,0,0,0,-5.6577,-5.6459,-5.6752,-5.6719,-5.6717,-5.6869,-5.6871,-5.6873,-5.6775,-5.6768,-5.6762,-5.6756,-5.6884,-5.6894,-5.6905,-5.7097,0,0,-5.6939,-5.6943,0,0,0,0,0,0,0,0,-5.657,-5.6588,-5.6723,-5.6722,-5.672,-5.68,-5.6811,-5.6948,-5.6776,-5.6753,-5.676,-5.6753,-5.6865,-5.6877,-5.6913,-5.7103,-5.7109,-5.694,-5.6946,-5.6951,-5.6954,0,0,0,0,0,0,0,-5.6561,-5.6582,-5.6799,-5.6725,-5.6723,-5.6701,-5.6712,-5.6837,-5.6843,-5.6755,-5.6748,-5.6762,-5.6863,-5.6903,-5.6915,-5.7111,-5.6939,-5.6949,-5.6956,-5.696,-5.7467,-5.7474,0,0,0,0,0,0,-5.6555,-5.6576,-5.6795,-5.6802,-5.6628,-5.6712,-5.6724,-5.6781,-5.6841,-5.6844,-5.6768,-5.6757,-5.6887,-5.6903,-5.6919,-5.7149,-5.6951,-5.6961,-5.6967,-5.746,-5.7469,-5.7476,0,0,0,0,0,0,-5.6548,-5.6575,-5.679,-5.6687,-5.6713,-5.6724,-5.6788,-5.6786,-5.6825,-5.6851,-5.6852,-5.6806,-5.6883,-5.6904,-5.7054,-5.7152,-5.6966,-5.6976,-5.7452,-5.7463,-5.7472,-5.761,0,0,0,0,0,0,-5.654,-5.6573,-5.6644,-5.6689,-5.6719,-5.692,-5.6794,-5.6793,-5.6844,-5.6831,-5.6888,-5.6891,-5.688,-5.7038,-5.7065,-5.7164,-5.6985,-5.7443,-5.7457,-5.7469,-5.7597,-5.7624,-5.7647,0,0,0,0,0,-5.653,-5.668,-5.6648,-5.6676,-5.6807,-5.6926,-5.6943,-5.6924,-5.6852,-5.6925,-5.6941,-5.6889,-5.7137,-5.7054,-5.7083,-5.7188,-5.7437,-5.7453,-5.7468,-5.7586,-5.7619,-5.7646,0,0,0,0,0,0,-5.6649,-5.6685,-5.6651,-5.6819,-5.687,-5.6909,-5.7,-5.696,-5.7034,-5.702,-5.6996,-5.701,-5.7167,-5.7192,-5.7099,-5.7378,-5.7276,-5.7298,-5.7355,-5.7387,-5.7412,-5.7403,-5.6994,0,0,0,0,0,-5.6694,-5.6785,-5.6813,-5.696,-5.6986,-5.6989,-5.704,-5.7021,-5.7074,-5.7096,-5.7123,-5.7179,-5.7269,-5.7329,-5.7414,-5.76,-5.7612,-5.7686,-5.7712,-5.7732,-5.7752,-5.7854,-5.7888,-5.7527,-5.7527,-5.7527,0,0,-5.679,-5.6821,-5.688,-5.6984,-5.7021,-5.7118,-5.7008,-5.7115,-5.7188,-5.7113,-5.7255,-5.7278,-5.7339,-5.7508,-5.7583,-5.7533,-5.7854,-5.7752,-5.7768,-5.7777,-5.7873,-5.7907,-5.7938,-5.7538,-5.7536,-5.7534,0,0,-5.7014,-5.7046,-5.7172,-5.7211,-5.7267,-5.7268,-5.7299,-5.7344,-5.7356,-5.7497,-5.7444,-5.7532,-5.7687,-5.7733,-5.7777,-5.802,-5.7976,-5.8048,-5.818,-5.828,-5.8308,-5.8333,-5.8421,-5.8453,-5.8068,-5.8068,-5.8068,0,-5.7127,-5.7268,-5.7242,-5.7353,-5.7402,-5.7336,-5.7465,-5.7505,-5.7588,-5.7624,-5.7566,-5.7761,-5.7797,-5.7977,-5.8036,-5.8073,-5.8109,-5.8042,-5.8306,-5.8331,-5.8354,-5.8437,-5.847,-5.8077,-5.8076,-5.8075,-5.8074,0,-5.7404,-5.7504,-5.7599,-5.7678,-5.7737,-5.7857,-5.7852,-5.7915,-5.7892,-5.79,-5.8047,-5.8088,-5.818,-5.8222,-5.8201,-5.84,-5.8367,-5.8308,-5.8205,-5.8397,-5.8475,-5.8507,-5.8089,-5.8086,-5.8083,-5.8081,0,0,-5.7706,-5.7769,-5.7805,-5.784,-5.7898,-5.7976,-5.8095,-5.8182,-5.8238,-5.8298,-5.8398,-5.8532,-5.8478,-5.8528,-5.8512,-5.8599,-5.8791,-5.853,-5.8531,-5.8578,-5.9014,-5.9059,-5.9096,-5.8762,-5.8768,-5.8772,-5.901,0,-5.7933,-5.8134,-5.8115,-5.8308,-5.8401,-5.8341,-5.8444,-5.8493,-5.8504,-5.8587,-5.8601,-5.8696,-5.8617,-5.8647,-5.8731,-5.875,-5.8879,-5.8732,-5.8857,-5.8862,-5.8844,-5.9136,-5.9183,-5.9405,-5.904,-5.9045,-5.9049,0,-5.8224,-5.8291,-5.8493,-5.8538,-5.8576,-5.8669,-5.8749,-5.8827,-5.8883,-5.8885,-5.8942,-5.8911,-5.9033,-5.8928,-5.9097,-5.8998,-5.9049,-5.9066,-5.9074,-5.9086,-5.8967,-5.9157,-5.9475,-5.9508,-5.9097,-5.9093,-5.9089,0,-5.8425,-5.8567,-5.8706,-5.8738,-5.8794,-5.8861,-5.8888,-5.8936,-5.8991,-5.9062,-5.9097,-5.9183,-5.923,-5.9299,-5.9293,-5.9216,-5.9467,-5.936,-5.9474,-5.9475,-5.9529,-5.9526,-5.9861,-5.9562,-5.9561,-5.956,-5.956,0,-5.868,-5.8806,-5.8796,-5.8882,-5.9023,-5.9001,-5.9142,-5.9161,-5.9206,-5.9296,-5.9251,-5.9338,-5.9325,-5.9413,-5.941,-5.9552,-5.9574,-5.9581,-5.9579,-5.9586,-5.9585,-5.9618,-5.9603,-5.9569,-5.9567,-5.9566,-5.9564,0,-5.8928,-5.8926,-5.9074,-5.9115,-5.9128,-5.923,-5.9266,-5.9349,-5.9356,-5.9472,-5.9498,-5.9511,-5.9613,-5.9614,-5.9731,-5.9729,-5.9903,-5.9883,-5.9884,-5.988,-5.9994,-5.9984,-6.0363,-6.0412,-6.008,-6.0083,-6.0086,0,-5.9091,-5.9186,-5.9236,-5.9292,-5.9323,-5.9414,-5.9469,-5.9453,-5.9512,-5.9583,-5.9658,-5.9755,-5.9831,-5.9997,-6.0019,-6.0109,-6.0092,-6.0219,-6.0105,-6.0109,-6.0095,-6.0089,-6.0099,-6.0241,-6.0244,-6.0247,-6.025,0,-5.9381,-5.9375,-5.9454,-5.9534,-5.96,-5.9663,-5.9721,-5.9771,-5.9761,-5.9831,-5.9933,-5.9992,-6.0111,-6.0208,-6.0296,-6.0327,-6.0289,-6.0285,-6.0317,-6.0324,-6.0321,-6.0325,-5.9944,-6.0277,-6.0274,-6.0272,-6.0271,-6.027,-5.9591,-5.9673,-5.9722,-5.9812,-5.9854,-5.9909,-5.9989,-6.0006,-6.0089,-6.0182,-6.0169,-6.0283,-6.0339,-6.0451,-6.049,-6.0581,-6.0538,-6.0583,-6.0594,-6.0606,-6.0619,-6.0306,-6.0597,-6.0597,-6.0596,-6.0595,-6.0595,0,-5.9879,-5.9907,-5.999,-6.0072,-6.0144,-6.0098,-6.0161,-6.0225,-6.0325,-6.0378,-6.0454,-6.0572,-6.0667,-6.0697,-6.079,-6.0857,-6.0842,-6.0882,-6.0877,-6.0886,-6.0652,-6.0616,-6.0893,-6.0893,-6.0893,-6.0893,-6.0893,-6.0893,-6.0037,-6.0174,-6.0175,-6.0333,-6.0361,-6.047,-6.051,-6.0562,-6.0604,-6.0737,-6.0815,-6.0832,-6.0878,-6.0973,-6.106,-6.1066,-6.1103,-6.1151,-6.115,-6.0932,-6.0902,-6.0873,-6.0839,-6.1159,-6.1159,-6.1376,-6.1378,-6.138]},{"header":{"parameterUnit":"m.s-1","parameterCategory":1,"la1":30.2991,"la2":30.254,"lo1":-89.0895,"lo2":-89.0444,"dy":0.0017,"dx":0.0017,"nx":28,"ny":28,"refTime":"2023-10-24T09:00:00:Z","depth":0,"parameterNumber":3,"parameterNumberName":"V-component_of_WINDS"},"data":[0,0,0,0,0,0,0,0,0,0,0,0,0,0,0,0,0,0,0,0,0,0,0,0,0,0,0,0,0,0,0,0,0,0,0,0,0,0,0,0,0,0,0,0,0,0,0,0,0,0,0,0,0,0,0,0,0,0,-0.0608,-0.0608,0,-0.0612,-0.0612,-0.0612,-0.0649,-0.065,-0.0651,-0.0652,-0.0655,-0.0654,-0.0653,0,0,0,0,0,0,0,0,0,0,0,0,0,-0.0628,-0.0627,-0.0608,-0.0608,-0.0608,-0.0612,-0.0612,-0.0612,-0.0649,-0.065,-0.0651,-0.0652,-0.0655,-0.0654,-0.0653,0,0,0,0,0,0,0,0,0,0,0,0,0,-0.0624,-0.0627,-0.0608,-0.0627,-0.0629,-0.0612,-0.0612,-0.0612,-0.0649,-0.065,-0.0652,-0.0653,-0.0655,-0.0654,-0.0653,-0.0618,0,0,-0.065,-0.0649,0,0,0,0,0,0,0,0,-0.0625,-0.0624,-0.0624,-0.0625,-0.0627,-0.0632,-0.062,-0.0614,-0.0649,-0.0641,-0.0652,-0.0654,-0.0646,-0.0646,-0.0643,-0.0618,-0.0618,-0.0649,-0.0649,-0.0648,-0.0648,0,0,0,0,0,0,0,-0.0625,-0.0624,-0.0609,-0.0624,-0.0626,-0.0634,-0.0635,-0.0619,-0.0636,-0.0642,-0.0645,-0.0645,-0.0647,-0.0644,-0.0644,-0.0619,-0.065,-0.0648,-0.0648,-0.0647,-0.0561,-0.0559,0,0,0,0,0,0,-0.0623,-0.0624,-0.0609,-0.061,-0.0629,-0.0633,-0.0634,-0.0629,-0.0636,-0.0638,-0.0644,-0.0646,-0.0646,-0.0645,-0.0644,-0.06,-0.0648,-0.0647,-0.0647,-0.0562,-0.056,-0.0559,0,0,0,0,0,0,-0.0623,-0.0621,-0.0609,-0.0617,-0.0616,-0.0631,-0.0625,-0.0628,-0.0626,-0.0637,-0.064,-0.0638,-0.0647,-0.0646,-0.0623,-0.0601,-0.0647,-0.0646,-0.0564,-0.0562,-0.056,-0.0514,0,0,0,0,0,0,-0.0623,-0.0621,-0.0609,-0.0617,-0.0616,-0.0589,-0.0624,-0.0627,-0.0624,-0.0627,-0.0633,-0.0635,-0.0648,-0.0625,-0.0622,-0.06,-0.0645,-0.0566,-0.0563,-0.056,-0.0518,-0.051,-0.0504,0,0,0,0,0,-0.0624,-0.0596,-0.0608,-0.0606,-0.0601,-0.0588,-0.0587,-0.0603,-0.0622,-0.0608,-0.0616,-0.0635,-0.0604,-0.0622,-0.062,-0.0597,-0.0568,-0.0564,-0.0561,-0.0521,-0.0512,-0.0504,0,0,0,0,0,0,-0.0585,-0.0598,-0.0611,-0.0585,-0.0585,-0.0594,-0.0578,-0.0594,-0.0589,-0.0592,-0.0612,-0.0613,-0.0587,-0.059,-0.061,-0.0561,-0.0589,-0.0585,-0.056,-0.0551,-0.0545,-0.0543,-0.0644,0,0,0,0,0,-0.0574,-0.0563,-0.0575,-0.055,-0.055,-0.0564,-0.0559,-0.0571,-0.0572,-0.0572,-0.0578,-0.0577,-0.0567,-0.056,-0.0552,-0.0519,-0.0519,-0.0502,-0.0495,-0.049,-0.0485,-0.0464,-0.0455,-0.0547,-0.0547,-0.0547,0,0,-0.055,-0.0555,-0.0547,-0.0543,-0.0544,-0.0531,-0.0564,-0.0549,-0.0539,-0.057,-0.0548,-0.0552,-0.0553,-0.0524,-0.0512,-0.0526,-0.0459,-0.0485,-0.0481,-0.0479,-0.0459,-0.045,-0.0442,-0.0545,-0.0545,-0.0545,0,0,-0.0498,-0.0503,-0.0481,-0.0482,-0.0484,-0.0493,-0.0488,-0.0494,-0.0498,-0.0477,-0.0498,-0.0486,-0.047,-0.0468,-0.0465,-0.041,-0.0426,-0.0408,-0.0371,-0.0351,-0.0343,-0.0337,-0.0314,-0.0305,-0.0403,-0.0403,-0.0403,0,-0.0467,-0.0449,-0.0468,-0.0451,-0.0447,-0.0475,-0.0452,-0.0451,-0.045,-0.0446,-0.0462,-0.044,-0.0442,-0.0412,-0.0398,-0.0396,-0.0388,-0.0406,-0.0343,-0.0337,-0.0331,-0.0309,-0.0301,-0.04,-0.0401,-0.0401,-0.0401,0,-0.041,-0.0396,-0.0379,-0.0376,-0.0371,-0.0351,-0.0365,-0.0357,-0.0369,-0.0376,-0.0353,-0.0357,-0.0348,-0.0342,-0.0355,-0.0312,-0.0321,-0.034,-0.0368,-0.0319,-0.0298,-0.0291,-0.0397,-0.0398,-0.0398,-0.0399,0,0,-0.0333,-0.034,-0.0333,-0.033,-0.0333,-0.0323,-0.0304,-0.0295,-0.0286,-0.0284,-0.0266,-0.025,-0.0267,-0.0264,-0.0276,-0.0259,-0.021,-0.028,-0.028,-0.0263,-0.0159,-0.0141,-0.0131,-0.0222,-0.0221,-0.0219,-0.0157,0,-0.028,-0.0247,-0.0263,-0.0227,-0.0213,-0.0239,-0.0221,-0.022,-0.0226,-0.0214,-0.0221,-0.0207,-0.0233,-0.023,-0.0214,-0.0219,-0.0189,-0.0225,-0.0202,-0.0201,-0.0197,-0.0121,-0.0104,-0.0045,-0.015,-0.0149,-0.0148,0,-0.0214,-0.0208,-0.0171,-0.0174,-0.0168,-0.0152,-0.0144,-0.0133,-0.0132,-0.0137,-0.0132,-0.0148,-0.0127,-0.0157,-0.0126,-0.015,-0.0142,-0.0143,-0.0141,-0.0137,-0.0169,-0.0111,-0.0027,-0.0016,-0.0136,-0.0137,-0.0138,0,-0.0157,-0.014,-0.0114,-0.0112,-0.0116,-0.0103,-0.0104,-0.0104,-0.0097,-0.009,-0.0085,-0.0076,-0.0069,-0.0061,-0.0073,-0.0094,-0.0039,-0.0071,-0.004,-0.0039,-0.0024,-0.0024,0.0066,-0.0026,-0.0026,-0.0026,-0.0026,0,-0.0094,-0.0069,-0.0088,-0.0072,-0.0044,-0.0062,-0.0033,-0.0037,-0.0037,-0.002,-0.0043,-0.0027,-0.0045,-0.003,-0.004,-0.001,-0.0009,-0.001,-0.0012,-0.0006,-0.0005,0.0002,-0.0001,-0.0024,-0.0024,-0.0025,-0.0025,0,-0.0024,-0.0036,-0.0009,-0.0014,-0.0015,0.0006,0.0002,0.0018,0.0011,0.0032,0.0036,0.0025,0.0042,0.003,0.0046,0.004,0.008,0.007,0.008,0.0079,0.0112,0.0111,0.0213,0.0228,0.0123,0.0124,0.0124,0,0.0019,0.0038,0.0035,0.0045,0.0045,0.006,0.0068,0.0051,0.006,0.0065,0.0081,0.0096,0.0107,0.0135,0.013,0.0143,0.0135,0.017,0.0137,0.0145,0.0141,0.0142,0.0146,0.0178,0.018,0.0181,0.0181,0,0.0098,0.0091,0.0103,0.0114,0.0124,0.0131,0.0137,0.0146,0.0129,0.0141,0.0158,0.0167,0.0184,0.02,0.0212,0.0212,0.0196,0.0191,0.02,0.0209,0.0216,0.0217,0.0103,0.019,0.0189,0.0189,0.0188,0.0188,0.0158,0.0175,0.0177,0.0192,0.0194,0.0201,0.0217,0.0212,0.0225,0.0239,0.0227,0.0249,0.0253,0.0266,0.0269,0.0287,0.0273,0.0284,0.0288,0.0292,0.0299,0.021,0.0288,0.0288,0.0287,0.0287,0.0287,0,0.024,0.024,0.0253,0.0263,0.0275,0.0257,0.0263,0.0275,0.0294,0.0298,0.031,0.0332,0.0348,0.0344,0.0359,0.0374,0.0367,0.0379,0.038,0.0381,0.0308,0.0301,0.0385,0.0385,0.0385,0.0385,0.0385,0.0385,0.0284,0.0313,0.0307,0.0338,0.0338,0.0359,0.0365,0.0372,0.0376,0.0401,0.0414,0.0411,0.0413,0.0428,0.0443,0.0442,0.0451,0.0466,0.0463,0.0395,0.0386,0.0377,0.037,0.0467,0.0467,0.0535,0.0535,0.0536]}]]